{"data":{"norad_id":56310,"intl_designator":"2023-057C","name":"TELEOS-2","alt_names":[],"object_type":"PAYLOAD","status":"ACTIVE","operator":null,"country":"SING","launch_date":"2023-04-22","launch_site_code":"SRILR","launch_vehicle":null,"mission":null,"orbit_class":"UNKNOWN","rcs_meters":null,"size_class":null,"mass_kg":null,"dimensions":null,"purposes":[],"wikipedia_slug":null,"has_3d_model":false,"image_url":null,"decayed_at":null,"tle_current":{"epoch":"2026-05-25T05:28:23.837088Z","epoch_age_seconds":62320,"freshness":"FRESH","line1":"1 56310U 23057C   26145.22805367  .00005229  00000+0  38977-3 0  9997","line2":"2 56310   9.9894  11.3475 0000923 266.7677  93.2431 14.96402923169358","mean_motion":14.96402923,"eccentricity":9.23e-5,"inclination_deg":9.9894,"raan_deg":11.3475,"arg_perigee_deg":266.7677,"mean_anomaly_deg":93.2431,"bstar":0.00038977,"rev_number":16935,"period_min":96.230766317475,"perigee_km":577.37955862877,"apogee_km":578.66366550855,"semimajor_km":6956.1586120687,"source":"CELESTRAK","updated_at":"2026-05-25T13:37:59.411392Z"}}}